Regional Weather Roundup
Issued by NWS Newport/Morehead, NC

Current Version | Previous Version | Graphics & Text | Print | Product List | Glossary Off
Versions: 1 2 3 4 5 6 7 8 9 10 11 12 13 14 15 16 17 18 19 20 21 22 23 24 25 26 27 28 29 30 31 32 33 34 35 36 37 38 39 40 41 42 43 44 45 46 47 48 49 50

000
ASUS42 KMHX 191810
RWRMHX
WEATHER ROUNDUP FOR EASTERN NORTH CAROLINA
NATIONAL WEATHER SERVICE NEWPORT/MOREHEAD CITY NC
200 PM EDT SAT APR 19 2014

NOTE: "FAIR" INDICATES FEW OR NO CLOUDS BELOW 12,000 FEET
WITH NO SIGNIFICANT WEATHER AND/OR OBSTRUCTIONS TO VISIBILITY

NCZ015>017-031-032-045>047-102-103-191900-
NORTH COAST

CITY           SKY/WX    TMP DP  RH WIND       PRES   REMARKS
EDENTON        LGT RAIN  50  46  85 NE6       30.19S
ELIZABETH CITY LGT RAIN  52  40  63 NE18      30.21R
KITTY HAWK     RAIN      48  47  95 N9G18     30.18R
MANTEO         LGT RAIN  50  48  94 NE14      30.18R

$$

NCZ045>047-081-094-103-104-191900-
CENTRAL COAST

CITY           SKY/WX    TMP DP  RH WIND       PRES   REMARKS
FRISCO         CLOUDY    53  51  93 NE14G29   30.09F
SWANQUARTER      N/A     54 N/A N/A NE9G23    30.09S

$$

NCZ095-097-098-100-101-191900-
SOUTHERN COAST

CITY           SKY/WX    TMP DP  RH WIND       PRES   REMARKS
BEAUFORT       CLOUDY    56  53  90 NE17G32   30.05S
CEDAR ISLAND     N/A     55 N/A N/A N22G41    30.12S
JACKSONVILLE   LGT RAIN  56  56 100 NE17G30   30.06F
NEWPORT          N/A     55  54  94 NE10G23     N/A
PINEY ISLAND   CLOUDY    57  55  93 NE26G40   30.06F
WILMINGTON     CLOUDY    59  56  89 NE18      30.02F


$$

NCZ011>013-027>030-043-044-078>080-089-090>093-098-191900-
COASTAL PLAIN

CITY           SKY/WX    TMP DP  RH WIND       PRES   REMARKS
AHOSKIE        CLOUDY    51  44  78 N13G20    30.22S
CLINTON        DRIZZLE   52  51  99 NE13      30.12R
ELIZABETHTOWN  DRIZZLE   52  52  99 NE6       30.08S
GOLDSBORO      CLOUDY    50  50 100 NE14G20   30.12R
GREENVILLE     DRIZZLE   50  46  87 NE14G21   30.18S
HAVELOCK       CLOUDY    55  51  86 NE22G35   30.09R
KENANSVILLE    CLOUDY    51  49  92 NE8       30.12S
KINSTON        LGT RAIN  52  50  93 MISG      30.14S
NEW BERN       CLOUDY    55  50  83 NE12G21   30.12R
RICHLANDS      CLOUDY    54  54 100 N15       30.09F
ROANOKE RAPIDS NOT AVBL
ROCKY MOUNT    LGT RAIN  51  47  86 NE14      30.18S
WASHINGTON     CLOUDY    50  46  85 NE10G17   30.16S
WHITEVILLE     CLOUDY    54  51  91 N10G17    30.04F FOG

$$

AMZ130-135-150-152-154-156-158-170-250-252-270-ANZ085-086-088-633-658-670-191900-
MARINE OBSERVATIONS

STATION/POSITION TIME  TEMP    WIND        PRES    WAVE   SWELL
                       AIR SEA DIR/SP/G            HT/PER HT/PER
                 (UTC) (F)     (DEG/KT/KT) (MB)    (FT/S) (FT/S)
CHESAPEAKE LIGHT 1700   46      50/ 17/ 17 1024.5
BUOY 44014       1800   53 48   40/ 17/ 19 1022.3    6/10   3/10
DUCK             1800   48 49   40/ 18/ 21 1021.6
2E DUCK          1800      47                N/A     6/10   2/12
OREGON INLET     1800   51 51   20/ 15/ 20 1021.1
BUOY 44095       1800      48                N/A     8/11   3/11
HATTERAS CG      1800   56 56   30/ 18/ 24 1018.8
DIAMOND BUOY     NOT AVBL
CAPE LOOKOUT     1700   59      30/ 30/ 38 1016.7
BEAUFORT LAB     1800   56 58   30/ 16/ 23 1016.9
30 SE NEW RIVER  1800   61 68   20/ 21/ 29 1015.9    8/ 7   2/ 9
5 SE WRIGHTSVILL 1700   59 59   50/ 21/ 25 1016.3
FRYING PAN BUOY  1800   65 67   40/ 23/ 27 1013.3    8/ 7
BUOY 41001       NOT AVBL
BUOY 41002       NOT AVBL
BUOY 41004       NOT AVBL

$$



USA.gov is the U.S. government's official web portal to all federal, state and local government web resources and services.